Probability
0 0 0 0 0 0 0 0 0 0 0 0 0 0 0 0 0 0 0 0 0 0 0 0 0 0 0 0 0 0 0 0 0 0 0 0 0 0
0 0 0 0 0 0 0 0 0 0 0 0 0 0 0 0 0 0 0 0 0 0 0 0 0 0 0 0 0 0 0 0 0 0 0 0 0 0
0 0 0 0 0 0 0 0 0 0 0 0 0 0 0 0 0 0 0 0 0 0 0 0 0 0 0 0 0 0 0 0 0 0 0 0 0 0
0 0 0 0 0 0 0 0 0 0 0 0 0 0 0 0 0 0 0 0 0 0 0 0 0 0 0 0 0 0 0 0 0 0 0 0 0 0
0 0 0 0 0 0 0 0 0 0 0 0 0 0 0 0 0 0 0 0 0 0 0 0 0 0 0 0 0 0 0 0 0 0 0 0 0 0
0 0 0 0 0 0 0 0 0 0 0 0 0 0 0 0 0 0 0 0 0 0 0 0 0 0 0 0 0 0 0 0 0 0 0 0 0 0
0 0 0 0 0 0 0 0 0 0 0 0 0 0 0 0 0 0 0 0 0 0 0 0 0 0 0 0 0 0 0 0 0 0 0 0 0 0
0 0 0 0 0 0 0 0 0 0 0 0 0 0 0 0 0 0 0 0 0 0 0 0 0 0 0 0 0 0 0 0 0 0 0 0 0 0
0 0 0 0 0 0 0 0 0 0 0 0 0 0 0 0 0 0 0 0 0 0 0 0 0 0 0 0 0 0 0 0 0 0 0 0 0 0
0 0 0 0 0 0 0 0 0 0 0 0 0 0 0 0 0 0 0 0 0 0 0 0 0 0 0 0 0 0 0 0 0 0 0 0 0 0
0 0 0 0 0 0 0 0 0 0 0 0 0 0 0 0 0 0 0 0 0 0 0 0 0 0 0 0 0 0 0 0 0 0 0 0 0 0
0 0 0 0 0 0 0 0 0 0 0 0 0 0 0 0 0 0 0 0 0 0 0 0 0 0 0 0 0 0 0 0 0 0 0 0 0 0
0 0 0 0 0 0 0 0 0 0 0 0 0 0 0 0 0 0 0 0 0 0 0 0 0 0 0 0 0 0 0 0 0 0 0 0 0 0
0 0 0 0 0 0 0 0 0 0 0 0 0 0 0 0 0 0 0 0 0 0 0 0 0 0 0 0 0 0 0 0 0 0 0 0 0 0
0 0 0 0 0 0 0 0 0 0 0 0 0 0 0 0 0 0 0 0 0 0 0 0 0 0 0 0 0 0 0 0 0 0 0 0 0 0
0 0 0 0 0 0 0 0 0 0 0 0 0 0 0 0 0 0 0 0 0 0 0 0 0 0 0 0 0 0 0 0 0 0 0 0 0 0
0 0 0 0 0 0 0 0 0 0 0 0 0 0 0 0 0 0 0 0 0 0 0 0 0 0 0 0 0 0 0 0 0 0 0 0 0 0
0 0 0 0 0 0 0 0 0 0 0 0 0 0 0 0 0 0 0 0 0 0 0 0 0 0 0 0 0 0 0 0 0 0 0 0 0 0
0 0 0 0 0 0 0 0 0 0 0 0 0 0 0 0 0 0 0 0 0 0 0 0 0 0 0 0 0 0 0 0 0 0 0 0 0 0
0 0 0 0 0 0 0 0 0 0 0 0 0 0 0 0 0 0 0 0 0 0 0 0 0 0 0 0 0 0 0 0 0 0 0 0 0 0
0 0 0 0 0 0 0 0 0 0 0 0 0 0 0 0 0 0 0 0 0 0 0 0 0 0 0 0 0 0 0 0 0 0 0 0 0 0
0 0 0 0 0 0 0 0 0 0 0 0 0 0 0 0 0 0 0 0 0 0 0 0 0 0 0 0 0 0 0 0 0 0 0 0 0 0
0 0 0 0 0 0 0 0 0 0 0 0 0 0 0 0 0 0 0 0 0 0 0 0 0 0 0 0 0 0 0 0 0 0 0 0 0 0
Wind_Speed
11 10 7 6 5 5 5 7 9 8 8 7 5 7 7 6 10 6 5 9 9 9 9 10 10 11 12 13 15 16 17 18 19 20 22 23 25 26
8 10 8 5 5 5 5 5 5 7 6 5 4 5 7 7 11 7 6 11 11 11 11 11 12 12 13 14 15 16 17 19 20 21 22 24 25 26
10 11 11 8 7 6 5 5 4 5 5 3 2 4 7 7 5 5 5 5 5 12 13 13 13 14 15 15 16 17 18 19 20 21 23 24 25 27
13 13 12 10 10 8 7 6 5 5 6 5 3 3 4 6 5 5 5 5 5 11 14 14 15 15 15 16 16 17 18 19 20 21 23 24 26 27
14 15 14 14 12 9 9 7 5 4 4 5 4 2 2 3 3 4 4 4 5 8 13 15 15 15 16 16 17 18 18 19 20 21 22 24 25 27
12 13 14 15 15 13 10 9 7 6 6 6 4 3 2 3 3 3 3 4 5 5 9 10 12 15 15 16 17 17 18 19 19 21 22 24 25 27
10 11 12 13 15 14 11 11 10 7 6 5 4 3 3 3 4 4 4 3 4 4 4 5 5 4 6 11 14 16 18 18 19 21 22 24 25 27
11 10 9 11 15 18 18 17 16 11 9 6 4 5 6 5 4 4 3 2 3 3 3 4 3 5 5 4 12 17 18 18 19 20 22 24 26 27
11 11 9 9 11 10 14 16 13 14 14 9 7 7 5 6 5 5 5 5 5 2 1 4 3 6 4 7 15 17 17 18 18 20 22 24 25 26
10 11 11 11 11 12 11 9 8 8 10 7 6 6 5 5 5 5 5 4 4 3 3 4 3 4 5 4 12 16 16 16 18 21 22 24 25 26
8 9 10 11 18 19 13 11 9 6 9 10 9 8 9 10 7 3 3 3 5 4 4 4 3 3 3 4 6 12 13 16 18 20 22 23 25 25
7 8 11 14 19 21 12 11 10 8 7 6 8 10 9 10 13 8 6 6 5 4 3 3 2 1 4 3 2 2 5 12 17 19 21 22 24 15
7 7 8 17 20 21 15 10 11 9 7 7 6 5 5 6 6 7 7 7 7 6 3 3 2 2 3 5 3 2 3 5 7 11 15 20 23 19
7 6 8 18 19 19 14 12 13 9 5 5 6 6 6 6 6 7 7 7 7 5 3 4 3 3 3 4 5 3 3 5 7 8 8 15 17 21
6 11 13 17 17 13 15 15 10 7 6 6 7 6 6 5 4 4 4 4 3 2 3 3 3 3 3 5 5 4 6 6 5 6 8 9 10 11
6 8 14 16 12 9 8 9 6 6 6 6 5 4 3 4 4 4 4 3 2 2 2 3 3 4 4 5 5 7 6 6 6 8 9 9 9 9
5 4 4 5 6 5 5 5 5 5 5 4 4 3 3 4 3 3 3 3 3 3 2 2 2 2 4 4 5 7 7 7 8 9 9 10 9 9
6 4 5 5 5 5 5 4 4 4 4 3 3 3 4 4 3 3 3 3 4 3 3 2 1 0 2 4 8 7 6 6 7 8 8 9 11 10
4 3 3 4 4 4 4 4 3 3 3 3 3 3 3 3 3 3 3 3 3 3 2 2 2 2 2 4 5 5 4 5 6 6 7 8 10 11
1 2 2 2 2 3 3 3 3 3 3 3 3 3 3 3 3 3 3 4 3 3 2 2 3 4 4 4 3 5 8 7 6 7 8 8 8 13
2 2 2 2 2 2 2 2 3 3 3 3 3 3 3 3 3 3 3 4 3 3 4 3 3 2 1 0 3 4 5 10 12 9 9 9 9 7
3 2 2 2 2 2 2 2 2 2 3 2 2 3 3 3 3 3 3 3 3 3 3 2 0 0 2 3 5 6 6 7 10 16 15 12 8 7
2 2 2 1 1 1 1 1 2 2 2 2 2 3 3 2 2 2 3 3 2 2 2 1 1 2 3 3 5 6 8 8 6 7 8 12 16 17
Wind_Direction
199 193 191 188 182 175 157 153 150 165 198 199 187 189 183 181 198 192 205 225 238 257 272 282 290 298 305 309 313 316 318 320 321 322 322 322 322 322
191 187 187 180 177 171 166 166 151 151 174 184 180 172 176 185 198 193 210 229 242 256 265 273 282 289 296 301 305 308 312 315 317 318 319 320 320 320
189 187 188 178 176 175 168 163 158 138 139 156 141 146 164 180 190 194 211 223 240 254 261 268 275 283 289 295 299 303 307 310 313 315 316 317 318 318
191 186 186 179 179 176 173 170 163 146 136 148 151 149 175 184 187 200 212 220 227 252 261 267 272 279 285 290 294 298 304 306 309 311 314 315 316 316
191 188 185 178 181 176 173 169 158 140 127 140 150 145 154 167 183 211 222 226 232 249 260 265 268 275 282 286 292 298 301 303 306 310 313 315 315 316
193 190 185 183 182 175 171 166 153 140 130 135 138 148 160 161 169 209 235 231 238 240 250 256 265 273 280 287 292 296 298 300 305 310 313 314 315 315
192 189 187 185 181 174 169 165 158 150 144 144 154 150 172 173 197 196 222 239 248 232 240 247 258 259 269 280 288 292 296 300 306 310 312 313 314 315
189 185 179 175 178 179 176 170 166 160 160 161 174 185 200 196 189 194 204 220 259 232 224 253 237 256 255 252 281 292 297 302 307 310 312 313 314 314
185 178 173 172 166 164 171 171 174 177 171 168 180 196 196 193 187 203 211 219 235 223 235 269 238 256 257 270 287 293 298 303 307 311 312 313 314 315
182 176 171 168 170 161 158 162 171 183 184 185 190 195 191 183 188 199 208 230 255 234 198 261 258 255 263 260 281 289 297 304 309 312 313 314 315 316
174 170 170 169 177 173 165 168 176 194 202 201 206 215 220 220 208 188 196 217 257 246 196 227 264 281 270 254 268 285 299 306 309 312 314 316 317 319
167 171 178 177 181 181 174 173 183 191 186 199 214 226 226 229 228 215 207 219 238 253 196 200 239 313 302 282 256 290 298 302 308 312 313 316 319 320
175 174 183 189 189 191 186 185 195 182 181 192 203 210 213 216 219 216 211 217 228 235 191 171 204 198 240 288 288 268 274 300 310 308 311 316 318 320
178 175 185 192 195 197 196 197 198 189 183 196 208 213 215 217 214 210 213 217 224 230 187 169 197 208 247 276 284 289 298 305 304 304 309 315 317 319
176 181 185 193 197 201 206 204 198 196 199 209 217 221 215 209 194 191 197 207 220 215 184 182 206 231 237 262 281 293 309 305 296 306 312 314 315 316
180 184 189 195 197 193 197 206 204 203 207 215 214 209 190 184 188 182 185 183 207 244 215 206 215 232 253 260 274 287 294 294 306 308 309 310 311 309
160 162 175 181 191 192 191 194 197 199 207 211 206 199 188 182 180 166 164 170 192 209 221 221 223 235 246 254 267 270 280 287 296 307 313 310 309 310
165 172 179 183 188 188 189 191 193 197 195 192 190 187 183 179 174 162 163 182 208 217 214 198 175 340 327 285 248 259 268 280 295 305 308 307 307 310
172 176 181 183 183 179 179 180 180 173 162 164 171 171 167 169 170 177 182 190 206 213 210 187 174 178 245 279 286 264 282 297 301 301 299 298 302 307
132 153 165 164 163 163 166 164 156 151 153 160 163 165 166 170 178 186 188 191 199 205 212 207 205 204 219 243 263 284 294 292 293 298 302 299 292 301
67 71 75 86 95 111 123 133 145 157 158 159 166 170 171 173 184 186 186 189 190 196 213 224 218 200 178 332 288 280 277 294 304 303 305 305 307 303
65 70 66 72 87 100 113 125 135 151 160 166 172 171 169 171 180 184 186 189 196 202 213 220 231 190 193 228 261 279 291 300 308 311 309 307 307 306
62 68 73 80 85 96 115 143 162 173 173 171 170 170 165 169 175 179 184 183 183 194 200 215 227 228 234 242 263 278 287 298 303 307 303 311 317 315